CZ-6A DEB, 61347

Orbit data source: Space-Track

CZ-6A DEB, 61347 is space debris in LEO originally from a launch on Tue, 06 Aug 2024 UTC launched from the Taiyaun Space Center, China (TSC). Debris objects in space refer to the collection of defunct objects orbiting the Earth. Examples of debris include non-operational satellites, rocket bodies, and fragments generated from explosions, collisions, or faulty payload assembly.

Loading next visibility...
Identifier
61347, 2024-140VL
Orbit
LEO
Country
Flag of CNCN / PRC
Related business
Manufacturer
SAST
Mission
Spacecraft
Bus & Motor
Unknown
Mass
Unknown
Launch date (UTC)
2024-08-06 (2 years ago)
Launch vehicle
Unknown
Launch site
Taiyaun Space Center, China (TSC)
Object type
Payload
Rocket body
Debris
Shape & HBR
Unknown shape, 0.1 m
Radar Cross Section
Medium (>0.1 m² and <1 m²)

Expand to show TLE details & history
Last TLE update: 11 hours ago

TLE from 11 hours ago
0 CZ-6A DEB
1 61347U 24140VL  26171.43538978  .00005814  00000-0  15780-2 0  9997
2 61347  89.6579 325.8107 0072250 192.6381 167.3015 14.45965156 94337
Epoch: 2026-06-20T10:26Z
TLE epoch observation values (Epoch: 2026-06-20T10:26:57.676Z)
Latitude
-0.0001°
Longitude
-99.57967°
Altitude
792.141 km
Speed
7.431 km/s
True Right ascension
21h 43m 14s
True Declination
0° 00' 00"
Sunlit
Object was in full shadow at epoch
Visualization orbit readout
Latitude
Unknown
Longitude
Unknown
Altitude
Unknown
Speed
Unknown
Apparent Right ascension
Unknown
Apparent Declination
Unknown
Sunlit
N/A
Visualization observer readout
Local Sidereal Time
08:33:05
Azimuth
Unknown
Elevation
Unknown
Doppler factor
Unknown
Orbital elements
Apogee altitude
787.167 km
Perigee altitude
684.371 km
Semi-major axis
7,113.906 km
Eccentricity
0.00723
Inclination
89.6579°
RAAN
325.8107°
Arg. of periapsis
192.6381°
True anomaly
167.4819°
Mean anomaly
167.3015°
Eccentric anomaly
167.39186°
Mean motion
3.61727 °/min
Orbital period
99.52 mins
BSTAR
0.001578
Loading maneuver chart data...
Computing Atmospheric mass density...
Loading historical data...
Loading historical data...
Loading historical data...
Loading historical data...
Loading historical data...
Loading historical data...
Loading historical data...

Documentation

Showing up to 5 results
|